Location: Greenvale
(40.8107°N, 73.6285°W)
Time: 01:44:15
(UTC+00:00)

Daily predictions for brighter satellites

Satellite Brightness Start Highest point End
(mag) Time Altitude Azimuth Time Altitude Azimuth Time Altitude Azimuth
Cosmos 1242 Rocket 2.6 00:46:02 10° S 00:49:40 66° E 00:53:20 10° NNE
SPOT 3 Rocket 4.0 00:48:03 10° S 00:53:14 67° WSW 00:58:27 10° NNW
IRIDIUM 106 4.5 00:48:03 10° N 00:53:17 82° W 00:58:30 10° S
Lacrosse 5 rocket 4.4 00:53:57 10° N 00:55:01 11° N 00:56:05 10° NNE
Cosmos 2034 Rocket 4.4 00:54:46 10° SSE 01:00:36 44° E 01:06:31 10° NNE
Cosmos 1151 Rocket 3.6 00:57:37 10° N 01:01:47 40° ENE 01:05:54 10° SSE
BREEZE M DEB (TANK) 2.9 00:58:46 10° WNW 01:05:27 54° SW 01:07:58 11° SE
USA 267 4.4 01:00:15 10° E 01:06:02 35° NNE 01:11:49 10° NW
Cosmos 2360 Rocket 2.2 01:00:49 10° S 01:06:19 59° ESE 01:11:52 10° NNE
COSMOS 2428 4.0 01:02:31 10° SE 01:06:26 19° E 01:10:23 10° NE
BREEZE-M DEB (TANK) 4.4 01:03:03 10° WNW 01:06:50 41° SSW 01:18:58 10° SSE
SL-4 R/B 2.5 01:02:57 10° SW 01:07:46 87° NW 01:12:38 10° NE
Cosmos 1825 3.6 01:07:04 11° SE 01:09:44 20° E 01:12:35 10° NE
NOSS 3-1 (C) 3.6 01:06:04 10° S 01:11:08 42° ESE 01:16:51 10° NE
CZ-2C R/B 3.6 01:12:35 10° NE 01:16:55 26° E 01:20:47 12° SSE
Cosmos 2151 3.3 01:13:37 10° SSW 01:17:53 70° W 01:22:12 10° N
USA 186 4.4 01:20:49 10° SW 01:22:03 13° W 01:23:16 10° WNW
Iridium 4 Rocket 3.8 01:17:11 10° N 01:23:05 74° E 01:28:39 10° S
Cosmos 1464 Rocket 4.1 01:17:44 10° S 01:24:01 87° W 01:30:16 10° N
Cosmos 1328 Rocket 3.5 01:21:15 10° N 01:25:38 89° E 01:29:56 10° S
Cosmos 2228 Rocket 3.7 01:23:52 10° N 01:28:12 41° ENE 01:31:25 17° SE
Cosmos 1140 Rocket 4.0 01:24:01 10° SSE 01:28:43 37° ESE 01:33:28 10° NE
SPOT 5 4.4 01:29:14 13° ESE 01:32:02 21° ENE 01:35:35 10° NNE
Cosmos 614 Rocket 4.0 01:27:13 10° S 01:32:09 56° ESE 01:37:07 10° NNE
Cosmos 1238 Rocket 4.4 01:25:44 10° SSW 01:32:23 73° W 01:38:50 10° N
Cosmos 2219 Rocket 3.0 01:28:59 10° SSE 01:33:54 31° ESE 01:38:49 10° NE
DELTA 2 R/B (1) 3.5 01:28:25 10° WSW 01:34:01 77° S 01:39:37 10° E
ARGOS 3.9 01:30:39 10° S 01:35:55 52° W 01:41:12 10° NNW
Resurs 01 Rocket 2.1 01:32:18 10° S 01:36:41 60° W 01:41:04 10° NNW
Cosmos 1500 Rocket 3.6 01:34:28 10° S 01:38:51 62° E 01:43:17 10° NNE
ISS -0.9 01:36:33 10° WNW 01:39:02 19° NNW 01:41:30 10° NNE
ADEOS Rocket 2.8 01:33:39 10° NNE 01:39:12 85° WNW 01:44:44 10° SSW
Cosmos 2322 Rocket 3.9 01:34:33 10° SW 01:39:48 37° WNW 01:45:05 10° N
ERS-1 Rocket 3.9 01:37:32 18° ESE 01:40:33 33° ENE 01:45:03 10° N
EO 1 Del DPAF 3.8 01:37:58 10° NNE 01:41:32 37° E 01:43:25 22° SSE
Cosmos 1356 Rocket 3.8 01:37:33 10° N 01:41:45 50° ENE 01:44:16 22° SE
Cosmos 407 Rocket 3.5 01:36:52 10° SSW 01:42:10 80° ESE 01:47:32 10° NNE
CZ-2C R/B 3.1 01:37:35 11° SSE 01:42:45 84° WSW 01:47:50 10° NNW
SL-16 R/B 4.4 01:44:08 10° WSW 01:48:58 28° NW 01:53:51 10° N
Cosmos 2333 4.2 01:43:41 10° S 01:49:19 63° ESE 01:54:55 10° NNE
H-2A R/B 3.5 01:45:51 10° SSW 01:50:50 37° W 01:55:46 10° NNW
USA 229 DEB 3.7 01:44:26 10° SW 01:51:01 81° NW 01:57:53 10° NNE
USA 229 3.7 01:44:33 10° SW 01:51:07 82° NW 01:57:59 10° NNE
Cosmos 1408 2.6 01:47:36 10° S 01:51:16 82° W 01:55:00 10° N
Cosmos 2278 Rocket 4.0 01:47:18 10° N 01:51:20 19° NE 01:54:41 12° E
Cosmos 1190 Rocket 3.9 01:47:18 10° SSW 01:52:29 88° ESE 01:57:44 10° NNE
Cosmos 1892 4.4 01:49:15 10° SW 01:52:45 34° WNW 01:56:16 10° N
NOSS 3-1 (A) 3.3 01:49:04 10° SSW 01:54:23 58° ESE 02:00:25 10° NE
Cosmos 1844 Rocket 2.7 01:48:47 10° NNW 01:54:28 71° ENE 01:57:59 24° SE
SL-23 DEB 3.7 01:51:34 10° WNW 01:56:16 72° SW 01:57:42 33° SE
MetOp-B 4.1 01:52:35 17° SSE 01:56:48 85° WSW 02:02:11 10° NNW
EP 3 3.7 01:56:50 42° SW 01:57:24 77° NW 01:59:30 10° NNE
Cosmos 2333 Rocket 2.4 01:52:21 10° S 01:57:49 49° ESE 02:03:16 10° NE
SL-8 R/B 3.7 01:53:21 10° WNW 01:58:09 84° NNE 02:00:47 27° ESE
Lacrosse 5 4.3 01:56:19 10° NNW 01:59:22 16° NNE 02:02:25 10° NE
ATLAS CENTAUR R/B 3.7 01:57:11 10° N 02:00:17 17° NE 02:02:59 11° ENE
Cosmos 2263 Rocket 4.3 01:56:22 10° NW 02:00:33 21° W 02:04:42 10° SSW
Terra 3.1 01:59:53 21° E 02:01:40 26° ENE 02:05:35 10° NNE
Cosmos 1933 3.2 02:00:29 10° N 02:04:32 89° E 02:06:32 29° S
Cosmos 2322 3.9 01:59:44 10° SSW 02:05:22 75° WNW 02:11:03 10° NNE
NOSS 2-3 (E) 4.2 02:04:22 31° SE 02:05:24 35° ESE 02:09:48 10° NE
Cosmos 1743 Rocket 4.3 02:03:27 10° SSW 02:07:42 53° W 02:11:58 10° N
NOSS 2-3 (D) 4.2 02:07:45 33° SE 02:08:26 35° ESE 02:12:48 10° NE
H-2A ROCKET BODY 4.4 01:40:09 10° W 02:10:01 34° SW 02:15:34 19° S
Meteor 2-3 Rocket 3.7 02:06:50 15° S 02:11:39 78° E 02:17:30 10° NNE
Thor Agena Rocket 3.5 02:07:26 10° NNE 02:12:26 59° ESE 02:15:09 26° S
Cosmos 1707 Rocket 4.4 02:10:02 10° N 02:14:08 34° ENE 02:15:08 31° ESE
ASTEX 1 4.3 02:10:56 10° NNE 02:15:19 30° E 02:16:12 28° ESE
USA 215 4.2 02:09:25 10° NE 02:15:40 49° NNW 02:21:55 10° WSW
USA 81 4.0 02:11:34 10° N 02:16:52 78° E 02:19:33 30° SSE
MOS 1 Rocket 4.0 02:17:58 10° NNE 02:22:12 34° E 02:22:41 33° ESE
Meteor 1-26 Rocket 4.1 02:17:51 10° N 02:23:27 90° NE 02:26:13 31° S
Cosmos 1607 3.9 02:24:04 10° NNW 02:30:15 87° WSW 02:32:59 36° SSE
COSMOS 2455 4.0 02:31:42 24° E 02:31:42 24° E 02:35:55 10° NE
Cosmos 1805 Rocket 3.5 02:30:02 34° SSW 02:31:52 83° W 02:36:15 10° N
Cosmos 1627 Rocket 4.4 02:26:13 10° N 02:32:26 89° ENE 02:35:37 31° S
Lacrosse 5 rocket 3.6 02:32:14 10° NNW 02:35:49 22° NNE 02:38:29 14° ENE
NOSS 0 Rocket 4.0 02:35:14 33° S 02:37:52 56° ESE 02:43:53 10° NNE
Cosmos 2279 Rocket 4.0 02:35:29 34° SSE 02:38:12 66° E 02:44:20 10° NNE
Cosmos 2084 Rocket 3.7 02:35:21 10° NW 02:39:38 58° WSW 02:40:24 49° SSW
Cosmos 1606 3.4 02:36:58 10° NNW 02:40:37 48° W 02:41:31 39° SW
SPOT 1/Viking Rocket 3.7 02:39:18 34° S 02:41:29 68° WSW 02:46:41 10° NNW
SL-16 R/B 4.0 02:43:24 15° E 02:43:24 15° E 02:45:32 10° ENE
BREEZE-M DEB (TANK) 4.4 02:42:25 10° NW 02:44:25 20° NNE 02:47:58 10° ENE
Cosmos 1825 4.4 02:42:04 10° SW 02:45:07 23° WNW 02:48:11 10° NNW
Cosmos 1844 4.2 02:42:33 10° NNW 02:48:02 53° WSW 02:50:14 34° SSW
SL-4 R/B 4.4 02:43:48 10° WNW 02:48:03 29° NNW 02:52:14 10° NE
USA 267 3.2 02:45:39 37° SE 02:48:35 88° SW 02:55:11 10° NW
CARTOSAT-1 3.5 02:47:47 56° S 02:48:36 76° WSW 02:52:56 10° NNW
Cosmos 1980 3.7 02:48:04 46° SSE 02:49:24 57° ESE 02:54:59 10° NNE
Cosmos 1782 2.6 02:45:31 10° N 02:49:33 90° WNW 02:49:48 78° S
COSMOS 2428 3.2 02:44:31 10° SW 02:50:09 59° WNW 02:55:50 10° NNE
NOSS 2-3 (C) 3.6 02:48:31 31° SW 02:50:37 88° NW 02:55:40 10° NE
Cosmos 1428 Rocket 4.5 02:44:30 10° N 02:50:49 84° W 02:53:29 38° S
Cosmos 1633 Rocket 2.9 02:51:10 67° ESE 02:51:25 69° E 02:55:44 10° NNE
Cosmos 1666 Rocket 3.5 02:52:16 61° S 02:53:03 89° E 02:57:33 10° N
Cosmos 2237 Rocket 2.2 02:54:35 50° SSE 02:55:40 60° ESE 03:01:13 10° NNE
CZ-2C R/B 3.9 02:52:32 10° N 02:57:16 37° WNW 03:01:57 10° SW
Cosmos 1862 3.8 02:59:43 49° ENE 02:59:43 49° ENE 03:03:00 10° NNE
Cosmos 1400 Rocket 4.5 02:55:42 10° NNE 02:58:39 24° ENE 02:58:39 24° ENE
Cosmos 1818 4.0 02:55:49 10° NW 03:01:06 52° WSW 03:02:21 43° SSW
IGS 5A 4.5 03:01:31 34° SW 03:02:22 38° W 03:06:16 10° NNW
Sich 1 3.6 03:02:03 39° SW 03:03:12 51° W 03:07:22 10° N
Cosmos 2242 Rocket 4.5 03:02:23 10° N 03:06:29 37° ENE 03:06:29 37° ENE
SPOT 5 3.7 03:08:28 36° SW 03:09:49 45° W 03:14:26 10° NNW
Cosmos 1862 Rocket 3.7 03:07:41 10° N 03:11:44 58° ENE 03:11:44 58° ENE
Cosmos 1470 Rocket 3.8 03:13:40 58° ENE 03:13:40 58° ENE 03:17:32 10° NNE
Meteor 1-10 Rocket 4.2 03:09:57 10° N 03:15:40 89° W 03:16:51 59° S
ISS -0.6 03:15:04 10° NNW 03:16:42 13° N 03:18:21 10° NNE
Meteor 2-6 Rocket 4.1 03:11:17 10° NNW 03:16:47 79° W 03:17:55 58° SSW
Cosmos 1741 Rocket 4.1 03:15:38 47° SW 03:17:06 75° WNW 03:22:20 10° NNE
Cosmos 2219 Rocket 3.5 03:12:29 10° SW 03:17:43 37° WNW 03:22:58 10° N
ATLAS 5 CENTAUR R/B 4.3 03:14:12 10° N 03:18:27 21° NE 03:22:32 12° E
ERS-1 Rocket 4.5 03:17:32 23° SW 03:19:19 28° W 03:23:38 10° NW
DELTA 2 R/B (1) 3.4 03:14:50 10° W 03:20:24 70° SSW 03:20:38 69° S
Helios 1A 3.8 03:22:25 40° NE 03:22:25 40° NE 03:25:50 10° N
Cosmos 1633 3.7 03:24:36 41° N 03:24:36 41° N 03:27:03 10° N
Cosmos 1867 4.5 03:18:54 10° SW 03:24:10 48° NW 03:29:29 10° NNE
Cosmos 1850 Rocket 4.4 03:23:20 37° SW 03:25:17 61° WNW 03:30:36 10° NNE
SeaSat 1 4.5 03:23:08 10° ENE 03:24:28 15° ENE 03:24:28 15° ENE
GP-B 4.0 03:23:40 10° NNE 03:27:05 38° ENE 03:27:05 38° ENE
Meteor 2-13 Rocket 4.3 03:28:00 10° N 03:34:07 74° E 03:35:00 63° SE
SL-24 R/B - RUBIN 2 4.4 03:29:07 10° NNW 03:35:01 73° NE 03:36:09 59° ESE
Cosmos 2278 Rocket 2.2 03:30:18 10° NNW 03:35:57 69° WSW 03:36:31 64° SSW
Cosmos 1932 4.4 03:30:53 10° NNW 03:37:23 88° WSW 03:38:32 63° SSE
Terra 3.0 03:38:46 32° WSW 03:39:16 33° W 03:43:33 10° NNW
ATLAS CENTAUR R/B 1.9 03:35:13 10° NW 03:39:10 60° WNW 03:39:10 60° WNW
Cosmos 2333 Rocket 4.2 03:37:38 10° WSW 03:42:19 26° NW 03:47:01 10° N
Lacrosse 5 2.6 03:38:39 10° NW 03:43:31 44° NE 03:44:19 41° ENE
Cosmos 841 Rocket 3.7 03:38:46 10° N 03:43:50 55° ENE 03:43:51 55° ENE
BREEZE-M DEB (TANK) 4.3 03:40:43 10° W 03:44:43 46° NNW 03:52:38 10° ENE
Lacrosse 4 Rocket 2.4 03:47:19 45° NE 03:47:19 45° NE 03:50:26 10° NNE
Cosmos 1763 Rocket 3.4 03:42:07 10° NNW 03:47:19 81° WSW 03:47:19 81° WSW
Helios 1B rocket 4.0 03:46:01 10° NNE 03:48:20 29° NE 03:48:20 29° NE
Mayak -0.6 03:48:52 10° N 03:52:22 56° NNW 03:52:22 56° NNW
Cosmos 2369 Rocket 4.2 03:54:23 10° N 03:58:17 18° NE 04:00:42 15° E
Cosmos 1812 4.0 03:55:21 10° NNW 03:57:54 39° NNW 03:57:54 39° NNW
Meteor 1-27 Rocket 4.0 03:55:35 10° NNW 04:01:25 61° W 04:02:00 58° WSW
Spot 4 4.2 04:07:02 58° WNW 04:07:02 58° WNW 04:11:13 10° NNW
Cosmos 2266 Rocket 4.5 04:08:23 10° NNW 04:14:26 48° W 04:15:22 45° WSW
Cosmos 2285 Rocket 4.0 04:14:10 61° SW 04:15:11 73° WNW 04:21:29 10° NNE
Lacrosse 5 rocket 2.5 04:10:58 10° NW 04:14:06 43° NW 04:14:06 43° NW
COSMOS 2455 3.4 04:14:47 39° WSW 04:16:41 54° WNW 04:22:37 10° NNE
Cosmos 1244 Rocket 4.4 04:10:21 10° N 04:16:43 73° E 04:17:10 70° ESE
Okean 1-7 4.0 04:19:58 10° N 04:23:03 46° NNW 04:23:03 46° NNW
SL-16 R/B 2.3 04:25:14 65° W 04:25:35 67° WNW 04:31:15 10° NNE
Cosmos 1553 Rocket 4.0 04:27:27 65° E 04:27:27 65° E 04:33:29 10° NNE
Cosmos 1417 Rocket 4.4 04:33:41 73° ESE 04:33:51 73° E 04:40:06 10° N
S3M 4.2 04:34:04 58° E 04:34:15 58° E 04:40:31 10° NNE
ATLAS 2AS CENTAUR R/B 3.2 04:35:56 53° SE 04:36:22 53° ESE 04:44:10 10° NE
USA 238 DEB 4.3 04:30:07 10° NNW 04:37:11 55° NE 04:39:48 38° ESE
USA 238 4.3 04:30:13 10° NNW 04:37:16 55° NE 04:39:55 37° ESE
CZ-4 R/B 4.5 04:33:06 10° NNE 04:36:43 50° NE 04:36:43 50° NE
Cosmos 1315 Rocket 4.5 04:34:07 10° NNW 04:36:22 31° NNW 04:36:22 31° NNW
Cosmos 2237 Rocket 4.3 04:36:21 12° W 04:40:09 21° NW 04:44:24 10° N
Cosmos 1943 4.4 04:41:22 30° E 04:41:22 30° E 04:45:12 10° NE
ALOS 2 3.8 04:49:08 37° NW 04:49:08 37° NW 04:52:03 10° NNW
Meteor 2-4 Rocket 4.5 04:43:21 10° N 04:48:42 41° ENE 04:48:53 41° E
Cosmos 540 Rocket 4.4 04:47:08 10° NNW 04:50:58 40° WNW 04:50:58 40° WNW
ISS -0.7 04:51:30 10° NW 04:52:23 15° NNW 04:52:23 15° NNW
ERS-2 4.2 04:59:29 26° NNW 04:59:29 26° NNW 05:01:13 10° NNW
Cosmos 1943 Rocket 2.5 04:56:55 10° NNW 05:02:21 55° ENE 05:02:29 55° ENE
ATLAS 5 CENTAUR R/B 2.3 04:57:52 10° NW 05:03:50 88° NE 05:04:02 85° SE
Cosmos 1745 Rocket 3.8 04:57:33 10° N 05:03:52 87° E 05:04:03 85° SE
SeaSat 1 2.9 04:59:36 10° NNE 05:04:14 54° NW 05:04:14 54° NW
SL-08 R/B 4.5 04:59:18 10° NNW 05:05:29 69° W 05:05:35 69° W
SL-19 R/B 4.3 05:14:01 73° W 05:14:01 73° W 05:19:40 10° NNW
Cosmos 1386 Rocket 4.3 05:12:38 10° N 05:18:38 82° W 05:18:38 82° W
Cosmos 2315 Rocket 4.1 05:23:03 63° ESE 05:23:27 64° E 05:29:45 10° NNE
NOSS 3-2 (C) 4.4 05:15:58 10° NNW 05:23:30 62° NE 05:28:02 29° ESE
Lacrosse 4 Rocket 4.1 05:23:36 12° WNW 05:25:13 14° NW 05:27:30 10° NNW
Lacrosse 5 3.8 05:21:51 10° WNW 05:23:29 19° WNW 05:23:29 19° WNW
Meteor 1-19 Rocket 4.5 05:21:32 10° NNW 05:26:19 56° WNW 05:26:19 56° WNW
CZ-2D R/B 4.2 05:24:03 10° NE 05:27:28 17° E 05:27:59 16° E
USA 32 4.2 05:25:00 10° N 05:29:51 65° ENE 05:29:51 65° ENE
Cosmos 968 Rocket 4.0 05:31:04 52° NW 05:31:04 52° NW 05:35:47 10° N
Cosmos 1733 Rocket 4.3 05:34:30 37° NW 05:34:30 37° NW 05:37:35 10° N
Cosmos 1809 Rocket 4.4 05:31:43 10° NNW 05:37:47 69° W 05:37:49 69° W
NOSS 3-4 (A) 3.3 05:41:20 76° SE 05:41:22 76° ESE 05:47:40 10° NE
NOSS 3-4 (C) 3.3 05:41:27 76° ESE 05:41:28 76° ESE 05:47:45 10° NE
Cosmos 2369 Rocket 2.2 05:37:14 10° NNW 05:42:27 69° WNW 05:42:27 69° WNW
Meteor 1-11 Rocket 3.6 05:46:27 82° WNW 05:46:27 82° WNW 05:52:08 10° N
Meteor 1-5 Rocket 4.3 05:50:48 70° W 05:51:02 71° WNW 05:57:00 10° N
Cosmos 1536 4.1 05:53:39 39° N 05:53:39 39° N 05:56:17 10° N
CENTAUR R/B 3.4 05:48:37 10° NNW 05:56:41 68° NE 06:03:38 17° SE
Cosmos 1603 4.5 05:56:17 40° WNW 05:56:56 41° WNW 06:02:16 10° N
Meteor 2-16 Rocket 4.3 05:50:48 10° N 05:56:59 84° W 05:57:25 77° SSW
NOSS 3-2 (A) 4.0 05:52:33 10° NW 06:00:10 64° WSW 06:01:36 56° SSW
CZ-4B R/B 3.5 05:55:22 10° NNE 05:59:53 73° N 05:59:53 73° N
Cosmos 1908 Rocket 4.4 06:03:08 46° NNW 06:03:08 46° NNW 06:06:33 10° N
ATLAS 3B R/B 2.6 05:58:07 10° NNW 06:04:49 80° NE 06:07:12 43° SE
Cosmos 1777 Rocket 3.9 06:08:32 85° N 06:08:32 85° N 06:13:38 10° NNE
SL-4 R/B 3.7 06:05:19 10° NW 06:09:43 37° NNE 06:13:51 10° E
Okean 2 Rocket 3.8 06:15:40 46° E 06:15:40 46° E 06:19:38 10° NNE
Cosmos 1656 Rocket 3.6 06:13:40 10° NNW 06:19:24 89° ENE 06:20:01 72° SSE
H-2A R/B 2.5 06:20:29 59° E 06:20:35 59° ENE 06:25:03 10° N
Cosmos 1943 4.1 06:23:10 33° W 06:24:10 36° WNW 06:29:22 10° N
FALCON 9 R/B 4.1 06:22:23 39° S 06:26:08 46° SSE 07:23:45 10° E
Meteor 1-23 Rocket 4.2 06:20:22 10° NNW 06:26:10 67° W 06:26:32 65° WSW
NPP 3.9 06:21:07 10° NNE 06:26:26 56° E 06:27:11 51° SE
Cosmos 2074 Rocket 3.9 06:21:19 10° N 06:27:38 84° E 06:29:09 55° SSE
ATLAS 2AS CENTAUR R/B 3.9 06:23:20 25° W 06:27:38 42° NW 06:35:14 10° NNE
ADEOS II 4.1 06:26:50 10° NE 06:30:29 19° E 06:32:51 14° SE
Resurs 1-4 Rocket 2.2 06:25:16 10° NNE 06:30:32 61° ESE 06:31:13 56° SE
Cosmos 1743 3.4 06:33:34 52° NE 06:33:34 52° NE 06:36:41 10° NNE
Cosmos 1782 Rocket 4.3 06:37:07 42° WNW 06:37:07 42° WNW 06:40:54 10° N
Cosmos 1300 Rocket 4.1 06:36:50 48° ESE 06:37:03 49° E 06:41:21 10° NNE
Cosmos 1975 3.3 06:38:44 57° ENE 06:38:44 57° ENE 06:42:28 10° NNE
RESURS DK-1 2.5 06:42:26 69° N 06:42:26 69° N 06:46:10 10° NNE
Nadezhda 1 Rocket 4.0 06:41:04 50° S 06:42:53 82° E 06:49:17 10° N
Cosmos 1666 3.9 06:44:20 34° NW 06:44:20 34° NW 06:47:01 10° N
CZ-4B R/B 4.3 06:43:15 10° E 06:44:20 11° ENE 06:45:26 10° NE
Okean 2 3.5 06:41:16 10° N 06:45:09 76° NNE 06:45:09 76° NNE
Cosmos 1943 Rocket 3.9 06:41:46 10° NW 06:43:58 17° WNW 06:43:58 17° WNW
ATLAS 5 CENTAUR R/B 4.4 06:44:14 10° WNW 06:45:31 13° W 06:45:31 13° W
Cosmos 1066 Rocket 4.2 06:42:56 10° NNW 06:48:36 60° W 06:49:12 57° SW
SL-16 R/B 2.4 06:48:42 47° S 06:50:40 81° WSW 06:56:53 10° NNW
Cosmos 2151 Rocket 3.6 06:51:06 70° SE 06:51:25 74° E 06:55:56 10° NNE
Cosmos 1025 Rocket 3.9 06:49:29 10° N 06:53:44 45° ENE 06:55:06 34° SE
Genesis I 3.8 06:56:16 52° NW 06:56:16 52° NW 07:00:09 10° NNE
Cosmos 1340 3.3 06:59:48 48° NW 06:59:48 48° NW 07:02:54 10° N
Meteor 2-15 Rocket 4.3 06:57:25 47° S 06:59:18 88° E 07:05:24 10° N
Cosmos 1842 4.0 06:56:43 10° N 07:00:28 47° E 07:01:08 42° ESE
Okean 1 Rocket 4.1 07:02:49 32° SE 07:04:12 41° E 07:08:26 10° NNE
Meteor 2-9 Rocket 4.3 07:04:20 40° SSE 07:06:16 67° E 07:11:50 10° NNE
CZ-2D R/B 2.3 07:02:31 10° N 07:07:56 64° WNW 07:09:18 47° SW
UNK 3.9 07:08:04 52° W 07:08:04 52° W 07:12:30 10° NNW
Cosmos 1610 Rocket 4.4 07:06:57 10° NNW 07:13:04 66° W 07:15:12 41° SSW
Cosmos 2341 Rocket 4.3 07:07:12 10° N 07:13:35 68° E 07:18:14 19° SSE
ARIANE 5 R/B 3.0 07:09:16 10° NNE 07:14:19 54° E 07:16:34 31° SSE
CBERS-1 4.0 07:12:05 10° N 07:17:12 67° WNW 07:18:34 47° SW
Cosmos 2154 Rocket 4.0 07:11:51 10° NNW 07:18:09 68° W 07:20:47 36° SSW
Cosmos 923 Rocket 4.0 07:14:21 10° NNW 07:19:37 61° WSW 07:21:07 44° SSW
Helios 1B 4.4 07:19:03 52° S 07:20:05 84° WSW 07:24:27 10° NNW
Atlas Centaur 2 3.5 07:20:00 31° S 07:21:03 32° S 07:27:00 10° ESE
CZ-4C R/B 3.1 07:21:53 63° WNW 07:21:53 63° WNW 07:25:11 10° NNW
Cosmos 1346 Rocket 4.2 07:24:00 25° WNW 07:24:00 25° WNW 07:27:11 10° NNW
deb Chang Zheng 4 3.6 07:21:03 10° N 07:25:14 58° WNW 07:25:56 51° WSW
SJ 16-02 1.7 07:25:29 38° SSE 07:26:52 58° ESE 07:31:10 10° NNE
Meteor 1-21 4.2 07:22:13 10° N 07:28:03 83° W 07:31:19 27° S
CZ-2C R/B 4.3 07:24:51 10° NE 07:28:08 29° E 07:30:01 19° SE
Cosmos 1689 Rocket 4.1 07:30:07 16° ESE 07:31:52 28° ENE 07:34:29 10° N
PSLV R/B 3.1 07:39:53 59° E 07:39:53 59° E 07:42:15 10° E
Cosmos 1937 Rocket 3.4 07:39:36 34° SSW 07:41:58 89° ESE 07:47:16 10° NNE
Cosmos 1680 Rocket 3.7 07:38:36 10° NNW 07:43:41 48° WSW 07:45:47 31° SSW
Spot 4 Rocket 4.0 07:39:15 10° NNE 07:44:26 86° ESE 07:47:17 27° SSW
CENTAUR R/B 3.9 07:40:03 10° NW 07:47:06 32° WSW 07:50:38 24° SSW
GPS 2-04 Rocket1 4.1 07:47:44 21° SSE 07:47:44 21° SSE 07:50:00 10° ESE
SL-8 Rocket 4.0 07:43:12 10° N 07:49:33 90° ENE 07:55:42 11° S
SL-4 R/B 2.2 07:45:09 10° WNW 07:49:35 51° SW 07:53:42 10° SSE
Cosmos 1898 Rocket 3.8 07:47:20 32° SW 07:49:40 57° WNW 07:54:55 10° NNE
IRS-1C 4.5 07:46:07 10° N 07:51:15 49° WNW 07:53:43 28° SW
Cosmos 1378 3.9 07:49:32 10° NNW 07:52:52 32° W 07:52:59 32° W
ATLAS 3B R/B 4.0 07:50:21 10° WNW 07:54:21 19° WSW 07:54:21 19° WSW
TSX-5 4.5 07:52:11 10° NNW 07:55:13 43° ENE 07:58:24 10° SE
COSMOS 2406 3.3 07:52:57 28° SW 07:55:57 68° WNW 08:01:38 10° NNE
H-2A R/B 4.2 07:57:35 13° W 07:57:35 13° W 07:59:03 10° WNW
Cosmos 1892 Rocket 4.5 07:53:14 10° N 07:57:29 48° E 08:01:42 10° SSE
CZ-2D R/B 3.5 07:57:02 10° N 08:01:24 80° WNW 08:03:58 25° SSW
GEOS 3 Rocket 4.2 07:58:32 10° NE 08:03:32 50° ESE 08:07:16 18° SSW
Cosmos 2084 3.3 08:00:43 10° NW 08:04:49 60° WSW 08:08:50 10° SSE
IDEFIX/ARIANE 42P 4.4 08:00:45 10° NE 08:05:09 28° E 08:09:32 10° SSE
Cosmos 2181 Rocket 4.1 08:01:47 23° SSW 08:05:46 58° W 08:11:53 10° N
Resurs 1-4 Rocket 3.9 08:06:22 10° NNW 08:09:50 18° WNW 08:12:17 13° W
SL-08 R/B 4.3 08:08:37 24° SW 08:09:57 28° W 08:14:04 10° NW
Aureole 2 Rocket 3.1 08:07:31 10° NW 08:09:57 28° W 08:09:57 28° W
ADEOS II 2.4 08:05:22 10° N 08:10:29 53° WNW 08:13:47 21° SW
Cosmos 864 Rocket 4.4 08:04:54 10° N 08:11:09 83° W 08:17:17 10° S
Cosmos 1707 2.6 08:08:07 10° N 08:11:58 76° W 08:15:08 15° S
Aureole 3 2.7 08:10:49 32° SSW 08:12:04 65° W 08:15:30 10° N
Cosmos 1697 Rocket 3.8 08:06:46 10° NNW 08:12:16 48° ENE 08:17:43 10° SE
Cosmos 1833 Rocket 2.9 08:08:17 17° S 08:12:43 70° ESE 08:18:21 10° NNE
CZ-4B R/B 2.1 08:16:02 28° WSW 08:16:27 30° W 08:19:14 10° NW
Meteor 1-28 Rocket 3.7 08:14:37 10° SSE 08:18:21 63° ENE 08:22:06 10° N
Cosmos 1980 Rocket 4.1 08:15:55 10° N 08:20:55 32° ENE 08:25:54 10° ESE
Cosmos 1656 3.7 08:19:37 10° NNW 08:25:21 81° WSW 08:31:01 10° SSE
Cosmos 1544 4.4 08:24:34 20° WSW 08:25:59 25° WNW 08:29:06 10° NNW
Milstar 3 3.7 08:24:30 17° SW 08:28:31 30° S 08:35:23 10° ESE
Cosmos 44 3.0 08:24:30 10° NNW 08:29:04 89° NE 08:33:24 10° SSE
Cosmos 2278 4.3 08:25:40 10° NNW 08:31:17 61° ENE 08:36:50 10° SE
Milstar 3 Cent rocket 3.5 08:31:37 15° SSW 08:34:11 22° S 08:38:47 10° ESE
SL-16 R/B 4.3 08:33:48 10° W 08:35:08 11° W 08:36:43 10° WNW
Meteor 1-15 Rocket 4.4 08:36:51 11° SSW 08:42:08 55° WNW 08:47:39 10° N
PSLV R/B 3.6 08:41:13 10° NNE 08:45:27 82° ESE 08:49:40 10° S
Cosmos 2366 rocket 4.5 08:42:41 10° NNW 08:48:18 39° W 08:53:57 10° SSW
Cosmos 1766 3.3 08:44:46 10° S 08:48:38 81° E 08:52:34 10° N
Cosmos 2082 Rocket 2.2 08:45:57 10° SSW 08:51:33 79° WNW 08:57:13 10° NNE
ARIANE 5 R/B 4.1 08:49:24 10° NNW 08:53:00 20° WNW 08:56:37 10° WSW
SL-27 R/B 2.7 08:55:07 10° S 08:58:26 64° ESE 09:01:49 10° NNE
CZ-2C R/B 4.4 08:59:45 10° NNW 09:02:24 18° WNW 09:05:03 10° WSW
Meteor 1-22 Rocket 4.1 08:57:59 10° S 09:03:17 87° E 09:08:37 10° N
Cosmos 1689 Rocket 4.3 09:02:52 10° WSW 09:03:26 10° W 09:03:59 10° W
USA 215 3.2 08:57:11 10° SE 09:03:43 76° SW 09:10:17 10° NW
Cosmos 389 Rocket 2.8 09:00:59 10° N 09:04:36 73° E 09:08:13 10° SSE
SJ 16-02 3.4 09:03:35 10° W 09:05:50 14° WNW 09:08:07 10° NNW
TELKOM 3 3.4 09:03:55 10° SW 09:06:11 44° SE 09:08:13 10° ENE
Cosmos 2369 3.8 09:01:15 10° NNW 09:06:44 53° WSW 09:12:11 10° S
Atlas Centaur 2 3.3 09:03:25 10° WSW 09:09:49 33° S 09:15:07 10° SE
PSLV R/B 4.4 09:06:02 10° S 09:09:52 40° W 09:13:47 10° NNW
Cosmos 1544 Rocket 4.3 09:07:10 10° SW 09:11:08 35° WNW 09:15:07 10° N
Cosmos 2360 4.2 09:07:26 10° NNW 09:13:09 86° WSW 09:18:50 10° SSE
Meteor 1-31 Rocket 3.8 09:09:36 10° NNE 09:13:18 47° E 09:17:00 10° S
ADEOS 4.0 09:08:25 10° N 09:13:23 45° WNW 09:18:19 10° SW
FALCON 9 R/B 2.0 09:11:37 10° SW 09:13:31 23° SSE 09:16:18 10° ESE
Cosmos 1821 Rocket 4.1 09:11:14 10° NNW 09:17:32 64° W 09:23:49 10° S
